This is the latest recevied weather packets stored in our database for station/object OM2RC-6. If no packets are shown the sender has not sent any weather packets the latest 10 day(s).
| Time | Temp. | Humidity | Pressure | Rain* | Wind** | Luminosity | Snow |
|---|---|---|---|---|---|---|---|
| 1777903629 | 25° C | 36% | 1014.9 hPa | - | - | - | - |
| 1777903310 | 24.44° C | 36% | 1014.8 hPa | - | - | - | - |
| 1777902991 | 25° C | 36% | 1015 hPa | - | - | - | - |
| 1777902672 | 23.89° C | 37% | 1014.9 hPa | - | - | - | - |
| 1777902353 | 23.89° C | 37% | 1015.1 hPa | - | - | - | - |
| 1777902034 | 23.89° C | 37% | 1015.1 hPa | - | - | - | - |
| 1777901715 | 24.44° C | 36% | 1015.2 hPa | - | - | - | - |
| 1777901396 | 24.44° C | 37% | 1015.2 hPa | - | - | - | - |
| 1777901076 | 24.44° C | 37% | 1015.2 hPa | - | - | - | - |
| 1777900757 | 25° C | 35% | 1015.2 hPa | - | - | - | - |
| 1777900438 | 25° C | 37% | 1015.3 hPa | - | - | - | - |
| 1777900119 | 25° C | 37% | 1015.5 hPa | - | - | - | - |
| 1777899800 | 25° C | 37% | 1015.5 hPa | - | - | - | - |
| 1777899481 | 24.44° C | 37% | 1015.5 hPa | - | - | - | - |
| 1777899162 | 25° C | 37% | 1015.6 hPa | - | - | - | - |
| 1777898843 | 26.11° C | 37% | 1015.6 hPa | - | - | - | - |
| 1777898524 | 24.44° C | 38% | 1015.7 hPa | - | - | - | - |
| 1777898205 | 24.44° C | 39% | 1015.7 hPa | - | - | - | - |
| 1777897886 | 23.89° C | 40% | 1015.7 hPa | - | - | - | - |
| 1777897566 | 23.89° C | 40% | 1015.9 hPa | - | - | - | - |
| 1777897247 | 24.44° C | 40% | 1015.8 hPa | - | - | - | - |
| 1777896928 | 24.44° C | 40% | 1016 hPa | - | - | - | - |
| 1777896609 | 23.89° C | 40% | 1016 hPa | - | - | - | - |
| 1777896290 | 24.44° C | 41% | 1016.1 hPa | - | - | - | - |
| 1777895971 | 23.89° C | 41% | 1016 hPa | - | - | - | - |
* Rain since midnight (hover to see other rain measurements)
** Current wind speed in m/s (hover to see current wind gust speed)